Weather History for Kirksville, MO

Change the Weather History Date:

Friday, December 21, 2012

  Actual Average Record
Temperature  
Mean Temperature 21 °F 27 °F  
Max Temperature 31 °F 36 °F 64 °F (1941)
Min Temperature 11 °F 19 °F -17 °F (1989)
Degree Days  
Heating Degree Days 44 38  
Month to date heating degree days 552 739  
Since 1 July heating degree days 1822 1960  
Cooling Degree Days 0 0  
Month to date cooling degree days 0 0  
Year to date cooling degree days 1321 939  
Moisture  
Dew Point 10 °F    
Average Humidity 68    
Maximum Humidity 88    
Minimum Humidity 47    
Precipitation  
Precipitation 0.00 in 0.06 in 1.33 in (1949)
Month to date precipitation 1.67 1.28  
Year to date precipitation 28.09 38.84  
Sea Level Pressure  
Sea Level Pressure 30.29 in    
Wind  
Wind Speed 8 mph (WNW)    
Max Wind Speed 21 mph    
Max Gust Speed 29 mph    
Visibility 10 miles    
Events      
T = Trace of Precipitation, MM = Missing Value Source: NWS Daily Summary

Daily Weather History Graph

Daily Weather History Graph

Search for Another Location

Airport:

Trip Planner

Search our weather history database for the weather conditions in past years. The results will help you decide how hot, cold, wet, or windy it might be!

Date:

Astronomy

Dec. 21, 2012 Rise Set
Actual Time 7:29 AM CST 4:48 PM CST
Civil Twilight 6:58 AM CST 5:18 PM CST
Nautical Twilight 6:24 AM CST 5:52 PM CST
Astronomical Twilight 5:51 AM CST 6:26 PM CST
Moon 12:35 PM CST 1:16 AM CST
Length of Visible Light 10h 20m
Length of Day
9h 19m
Waxing Gibbous, 65% of the Moon is Illuminated
Dec 21
Waxing Gibbous
Dec 28
Full
Jan 4
Last Quarter
Jan 11
New
Jan 18
First Quarter

Hourly Weather History & Observations

Time (CST) Temp. Windchill Dew Point Humidity Pressure Visibility Wind Dir Wind Speed Gust Speed Precip Events Conditions
12:55 AM 19.0 °F 3.6 °F 10.9 °F 71% 30.12 in 10.0 mi WNW 18.4 mph 25.3 mph N/A   Clear
1:55 AM 18.0 °F 3.1 °F 10.9 °F 74% 30.14 in 10.0 mi WNW 16.1 mph 25.3 mph N/A   Clear
2:55 AM 18.0 °F 4.2 °F 10.0 °F 71% 30.16 in 10.0 mi WNW 13.8 mph - N/A   Clear
3:55 AM 17.1 °F 3.6 °F 10.0 °F 74% 30.18 in 10.0 mi WNW 12.7 mph - N/A   Clear
4:55 AM 17.1 °F 3.0 °F 9.0 °F 71% 30.21 in 10.0 mi WNW 13.8 mph 20.7 mph N/A   Clear
5:55 AM 16.0 °F 3.6 °F 8.1 °F 71% 30.23 in 10.0 mi WNW 10.4 mph - N/A   Clear
6:55 AM 15.1 °F 3.3 °F 7.0 °F 70% 30.26 in 10.0 mi WNW 9.2 mph - N/A   Clear
7:55 AM 15.1 °F 4.2 °F 7.0 °F 70% 30.29 in 10.0 mi WNW 8.1 mph - N/A   Clear
8:55 AM 17.1 °F 5.8 °F 7.0 °F 65% 30.32 in 10.0 mi WNW 9.2 mph - N/A   Clear
9:55 AM 21.0 °F 10.6 °F 8.1 °F 57% 30.34 in 10.0 mi NW 9.2 mph - N/A   Clear
10:55 AM 26.1 °F 18.4 °F 10.0 °F 51% 30.34 in 10.0 mi NNW 6.9 mph - N/A   Clear
11:55 AM 30.0 °F 21.1 °F 12.0 °F 47% 30.33 in 10.0 mi WNW 10.4 mph - N/A   Clear
12:55 PM 30.0 °F 20.0 °F 12.9 °F 49% 30.32 in 10.0 mi West 12.7 mph - N/A   Clear
1:55 PM 30.0 °F 21.7 °F 12.9 °F 49% 30.32 in 10.0 mi West 9.2 mph - N/A   Clear
2:55 PM 30.9 °F 24.3 °F 12.0 °F 46% 30.31 in 10.0 mi NW 6.9 mph - N/A   Clear
3:55 PM 30.0 °F 23.2 °F 12.0 °F 47% 30.32 in 10.0 mi WNW 6.9 mph - N/A   Clear
4:55 PM 24.1 °F 17.0 °F 12.0 °F 60% 30.34 in 10.0 mi West 5.8 mph - N/A   Clear
5:55 PM 23.0 °F 18.4 °F 12.0 °F 63% 30.35 in 10.0 mi West 3.5 mph - N/A   Clear
6:55 PM 19.0 °F 13.9 °F 12.0 °F 74% 30.35 in 10.0 mi West 3.5 mph - N/A   Clear
7:55 PM 16.0 °F - 12.0 °F 84% 30.35 in 10.0 mi Calm Calm - N/A   Clear
8:55 PM 14.0 °F - 10.9 °F 88% 30.34 in 10.0 mi Calm Calm - N/A   Clear
9:55 PM 14.0 °F - 10.0 °F 84% 30.34 in 10.0 mi Calm Calm - N/A   Clear
10:55 PM 15.1 °F - 10.0 °F 80% 30.33 in 10.0 mi Calm Calm - N/A   Clear
11:55 PM 16.0 °F - 12.0 °F 84% 30.32 in 10.0 mi Calm Calm - N/A   Clear